Date String (YYYY-MM-DD hh:mm:ss) UTC,Instrument flags,Ambient pressure (hPa),Sample flow (lpm),Bypass flow (lpm),Sample temperature (°C),Ambient temperature (°C),ASC tube jacket temperature (°C),LED temperature (°C),Box temperature (°C),Sample RH (%),Span deviation,Mass concentration (μg/m³),Mass concentration (μg/m³),Mass concentration (μg/m³)
DateTimeUTC,F1_M11,P_M11,Q1_M11,Q2_M11,T1_M11,T2_M11,T3_M11,T4_M11,T5_M11,U1_M11,ZSPAN_M11,X0_M11,X2_M11,X1_M11
2022-06-22 23:00:00,,0829.9,4.99,0.00,29.0,27.1,00.0,37.7,30.8,17.8,0000.0,0023.63,0005.61,0003.68
2022-06-22 23:01:00,,0829.8,5.01,0.00,29.0,27.3,00.0,37.7,30.8,18.0,0000.0,0023.54,0005.63,0003.70
2022-06-22 23:02:00,,0829.9,5.01,0.00,29.0,27.5,00.0,37.7,30.9,18.3,0000.0,0023.23,0005.67,0003.71
2022-06-22 23:03:00,,0829.9,5.00,0.00,29.0,27.6,00.0,37.7,30.9,17.8,0000.0,0021.99,0005.68,0003.72
2022-06-22 23:04:00,,0829.8,5.00,0.00,29.0,27.8,00.0,37.8,31.0,17.7,0000.0,0020.42,0005.69,0003.73
2022-06-22 23:05:00,,0829.8,5.01,0.00,29.0,28.0,00.0,37.8,31.0,17.5,0000.0,0020.41,0005.73,0003.75
2022-06-22 23:06:00,,0829.8,5.00,0.00,29.1,28.1,00.0,37.8,31.1,17.3,0000.0,0020.56,0005.75,0003.76
2022-06-22 23:07:00,,0829.8,5.00,0.00,29.1,28.2,00.0,37.8,31.1,17.8,0000.0,0021.39,0005.76,0003.77
2022-06-22 23:08:00,,0829.8,4.99,0.00,29.2,28.3,00.0,37.8,31.2,17.8,0000.0,0021.10,0005.75,0003.78
2022-06-22 23:09:00,,0829.8,5.00,0.00,29.2,27.9,00.0,37.8,31.1,17.4,0000.0,0021.55,0005.79,0003.77
2022-06-22 23:10:00,,0829.7,5.01,0.00,29.1,27.1,00.0,37.8,30.8,17.3,0000.0,0021.07,0005.83,0003.77
2022-06-22 23:11:00,,0829.7,5.00,0.00,29.0,26.9,00.0,37.7,30.7,17.5,0000.0,0021.80,0005.83,0003.77
2022-06-22 23:12:00,,0829.7,5.00,0.00,29.0,26.9,00.0,37.7,30.7,17.9,0000.0,0022.63,0005.83,0003.76
2022-06-22 23:13:00,,0829.7,5.00,0.00,28.9,27.0,00.0,37.7,30.8,17.6,0000.0,0022.56,0005.76,0003.75
2022-06-22 23:14:00,,0829.7,5.00,0.00,28.9,27.2,00.0,37.7,30.8,17.7,0000.0,0023.31,0005.69,0003.74
2022-06-22 23:15:00,,0829.6,5.00,0.00,28.9,27.4,00.0,37.7,30.8,17.7,0000.0,0024.15,0005.67,0003.73
2022-06-22 23:16:00,,0829.6,4.99,0.00,29.0,27.6,00.0,37.7,30.9,17.3,0000.0,0023.43,0005.61,0003.72
2022-06-22 23:17:00,,0829.7,5.00,0.00,29.0,27.7,00.0,37.7,31.0,17.3,0000.0,0022.28,0005.54,0003.71
2022-06-22 23:18:00,,0829.7,5.01,0.00,29.0,27.9,00.0,37.8,31.0,17.3,0000.0,0021.49,0005.56,0003.71
2022-06-22 23:19:00,,0829.7,5.01,0.00,29.1,28.0,00.0,37.8,31.1,17.3,0000.0,0022.27,0005.55,0003.70
2022-06-22 23:20:00,,0829.6,5.01,0.00,29.1,28.2,00.0,37.8,31.1,17.1,0000.0,0022.02,0005.53,0003.68
2022-06-22 23:21:00,,0829.6,5.00,0.00,29.1,28.3,00.0,37.8,31.2,17.2,0000.0,0022.85,0005.50,0003.67
2022-06-22 23:22:00,,0829.6,5.00,0.00,29.2,28.1,00.0,37.8,31.1,17.3,0000.0,0022.41,0005.48,0003.67
2022-06-22 23:23:00,,0829.6,5.00,0.00,29.1,27.2,00.0,37.8,30.9,17.3,0000.0,0020.80,0005.43,0003.67
2022-06-22 23:24:00,,0829.5,5.01,0.00,29.0,26.8,00.0,37.7,30.7,17.4,0000.0,0020.25,0005.43,0003.68
2022-06-22 23:25:00,,0829.5,5.00,0.00,29.0,26.8,00.0,37.7,30.7,17.4,0000.0,0019.60,0005.51,0003.69
2022-06-22 23:26:00,,0829.5,5.01,0.00,28.9,26.9,00.0,37.7,30.7,17.6,0000.0,0020.15,0005.53,0003.69
2022-06-22 23:27:00,,0829.5,5.00,0.00,28.9,27.1,00.0,37.7,30.7,17.7,0000.0,0020.32,0005.54,0003.69
2022-06-22 23:28:00,,0829.5,5.00,0.00,28.9,27.3,00.0,37.7,30.8,18.4,0000.0,0020.30,0005.55,0003.69
2022-06-22 23:29:00,,0829.5,4.99,0.00,28.9,27.4,00.0,37.7,30.9,18.4,0000.0,0019.97,0005.49,0003.69
2022-06-22 23:30:00,,0829.5,5.00,0.00,29.0,27.6,00.0,37.7,30.9,18.1,0000.0,0018.52,0005.47,0003.70
2022-06-22 23:31:00,,0829.5,4.99,0.00,29.0,27.8,00.0,37.7,31.0,18.5,0000.0,0017.98,0005.46,0003.71
2022-06-22 23:32:00,,0829.5,4.99,0.00,29.0,28.0,00.0,37.8,31.0,18.3,0000.0,0016.77,0005.42,0003.72
2022-06-22 23:33:00,,0829.5,5.01,0.00,29.1,28.1,00.0,37.8,31.1,18.1,0000.0,0015.99,0005.39,0003.72
2022-06-22 23:34:00,,0829.5,4.99,0.00,29.1,28.2,00.0,37.8,31.1,18.8,0000.0,0016.35,0005.40,0003.73
2022-06-22 23:35:00,,0829.5,4.99,0.00,29.1,28.2,00.0,37.8,31.1,18.8,0000.0,0016.91,0005.38,0003.72
2022-06-22 23:36:00,,0829.4,5.00,0.00,29.1,27.5,00.0,37.8,31.0,19.0,0000.0,0017.35,0005.39,0003.72
2022-06-22 23:37:00,,0829.4,5.00,0.00,29.0,26.9,00.0,37.7,30.8,18.8,0000.0,0016.06,0005.35,0003.73
2022-06-22 23:38:00,,0829.3,5.00,0.00,29.0,26.8,00.0,37.7,30.7,18.8,0000.0,0015.73,0005.40,0003.74
2022-06-22 23:39:00,,0829.3,5.00,0.00,28.9,26.9,00.0,37.7,30.7,18.8,0000.0,0016.06,0005.40,0003.75
2022-06-22 23:40:00,,0829.3,5.02,0.00,28.9,27.0,00.0,37.7,30.7,18.7,0000.0,0015.94,0005.41,0003.74
2022-06-22 23:41:00,,0829.2,4.99,0.00,28.9,27.2,00.0,37.7,30.8,18.5,0000.0,0016.49,0005.44,0003.75
2022-06-22 23:42:00,,0829.2,4.99,0.00,28.9,27.4,00.0,37.7,30.8,18.0,0000.0,0018.10,0005.48,0003.76
2022-06-22 23:43:00,,0829.2,5.00,0.00,28.9,27.6,00.0,37.7,30.9,17.6,0000.0,0018.46,0005.52,0003.77
2022-06-22 23:44:00,,0829.2,5.02,0.00,29.0,27.8,00.0,37.7,30.9,17.4,0000.0,0018.64,0005.59,0003.76
2022-06-22 23:45:00,,0829.3,5.00,0.00,29.0,27.9,00.0,37.7,31.0,17.6,0000.0,0018.73,0005.56,0003.75
2022-06-22 23:46:00,,0829.3,5.00,0.00,29.0,28.1,00.0,37.8,31.0,18.0,0000.0,0018.74,0005.64,0003.76
2022-06-22 23:47:00,,0829.2,4.99,0.00,29.1,28.2,00.0,37.8,31.1,18.2,0000.0,0019.08,0005.61,0003.76
2022-06-22 23:48:00,,0829.3,5.01,0.00,29.1,28.3,00.0,37.8,31.2,17.9,0000.0,0019.86,0005.62,0003.76
2022-06-22 23:49:00,,0829.3,5.01,0.00,29.1,27.8,00.0,37.8,31.1,17.4,0000.0,0019.65,0005.62,0003.75
2022-06-22 23:50:00,,0829.3,5.00,0.00,29.1,27.1,00.0,37.7,30.9,16.8,0000.0,0019.04,0005.62,0003.74
2022-06-22 23:51:00,,0829.2,5.01,0.00,29.0,26.9,00.0,37.7,30.8,16.9,0000.0,0019.29,0005.57,0003.73
2022-06-22 23:52:00,,0829.2,4.99,0.00,29.0,26.9,00.0,37.7,30.8,17.3,0000.0,0018.68,0005.52,0003.71
2022-06-22 23:53:00,,0829.2,4.99,0.00,28.9,27.1,00.0,37.7,30.8,17.4,0000.0,0017.18,0005.50,0003.69
2022-06-22 23:54:00,,0829.2,5.00,0.00,28.9,27.2,00.0,37.7,30.8,16.8,0000.0,0016.83,0005.44,0003.68
2022-06-22 23:55:00,,0829.2,5.01,0.00,28.9,27.4,00.0,37.7,30.9,16.9,0000.0,0016.71,0005.31,0003.66
2022-06-22 23:56:00,,0829.2,4.99,0.00,29.0,27.6,00.0,37.7,30.9,17.0,0000.0,0016.78,0005.30,0003.65
2022-06-22 23:57:00,,0829.3,5.00,0.00,29.0,27.8,00.0,37.7,31.0,17.8,0000.0,0016.30,0005.23,0003.63
2022-06-22 23:58:00,,0829.2,5.01,0.00,29.0,27.9,00.0,37.7,31.0,17.8,0000.0,0015.80,0005.20,0003.61
2022-06-22 23:59:00,,0829.2,5.00,0.00,29.1,28.1,00.0,37.8,31.1,17.7,0000.0,0015.99,0005.19,0003.59
